Location: Goudex
(43.3760°N, 0.9543°E)
Time: 00:12:56
(UTC+00:00)

COBE Rocket - Pass Details

Date: 20 November 2019
Orbit: 679 x 783 km, 97.1° (Epoch: 15 December)

Event Time Altitude Azimuth Distance (km) Brightness Sun altitude
Rises 04:48:19 0° 170° (S) 3,246 7.5 -22.9°
Reaches altitude 10° 04:50:39 10° 171° (S) 2,316 6.7 -22.4°
Maximum altitude 04:55:47 80° 258° (WSW) 781 3.8 -21.5°
Drops below altitude 10° 05:00:50 10° 346° (NNW) 2,279 6.2 -20.6°
Enters shadow 05:01:00 - 346° (NNW) 2,347 6.3 -20.6°
